Richmond, VA

4:43 PM EDT on March 27, 2017 (GMT -0400)
Richmond International

Weather History for KRIC - February, 2012

Change the Weather History Date:

Tuesday, February 21, 2012

  Actual Average Record
Temperature  
Mean Temperature 39 °F 42 °F  
Max Temperature 55 °F 53 °F 75 °F (1930)
Min Temperature 23 °F 31 °F 4 °F (2015)
Degree Days  
Heating Degree Days 26 23  
Month to date heating degree days 460 521  
Since 1 July heating degree days 2272 2782  
Cooling Degree Days 0 0  
Month to date cooling degree days 0 0  
Year to date cooling degree days 0 0  
Moisture  
Dew Point 31 °F    
Average Humidity 71    
Maximum Humidity 92    
Minimum Humidity 50    
Precipitation  
Precipitation 0.00 in 0.10 in 1.34 in (1954)
Month to date precipitation 1.83 2.04  
Year to date precipitation 3.56 5.08  
Snow  
Snow 0.00 in 0.10 in 2.00 in (1929)
Month to date snowfall 4.0 2.7  
Since 1 July snowfall 4.0 8.9  
Snow Depth 0.00 in    
Sea Level Pressure  
Sea Level Pressure 30.18 in    
Wind  
Wind Speed 6 mph (SSW)    
Max Wind Speed 21 mph    
Max Gust Speed 28 mph    
Visibility 9 miles    
Events      
T = Trace of Precipitation, MM = Missing Value Source: NWS Daily Summary

Daily Weather History Graph

Daily Weather History Graph

Search for Another Location

Airport or City:

Trip Planner

Search our weather history database for the weather conditions in past years. The results will help you decide how hot, cold, wet, or windy it might be!

Date:

Astronomy

Feb. 21, 2012 Rise Set
Actual Time 6:51 AM EST 5:54 PM EST
Civil Twilight 6:25 AM EST 6:21 PM EST
Nautical Twilight 5:54 AM EST 6:51 PM EST
Astronomical Twilight 5:24 AM EST 7:21 PM EST
Moon 6:20 AM EST (2/21) 5:57 PM EST (2/21)
Length of Visible Light 11h 55m
Length of Day
11h 02m
Waning Crescent, 0% of the Moon is Illuminated
Feb 21
Waning Crescent
Feb 21
New
Feb 29
First Quarter
Mar 8
Full
Mar 14
Last Quarter

Hourly Weather History & Observations

Time (EST) Temp. Windchill Dew Point Humidity Pressure Visibility Wind Dir Wind Speed Gust Speed Precip Events Conditions
12:54 AM 27.0 °F - 24.1 °F 89% 30.38 in 8.0 mi Calm Calm - N/A   Clear
1:54 AM 28.0 °F - 25.0 °F 88% 30.38 in 10.0 mi Calm Calm - N/A   Clear
2:54 AM 28.0 °F - 25.0 °F 88% 30.36 in 5.0 mi Calm Calm - N/A   Clear
3:54 AM 26.1 °F - 24.1 °F 92% 30.35 in 6.0 mi Calm Calm - N/A   Clear
4:54 AM 25.0 °F - 21.9 °F 88% 30.35 in 6.0 mi Calm Calm - N/A   Clear
5:54 AM 24.1 °F - 21.9 °F 91% 30.33 in 7.0 mi Calm Calm - N/A   Clear
6:54 AM 24.8 °F - 23.0 °F 93% 30.29 in 6.0 mi Calm Calm - N/A   Scattered Clouds
7:54 AM 28.9 °F 25.2 °F 27.0 °F 92% 30.33 in 7.0 mi SSW 3.5 mph - N/A   Scattered Clouds
8:54 AM 34.0 °F 28.8 °F 28.9 °F 82% 30.36 in 9.0 mi SW 5.8 mph - N/A   Scattered Clouds
9:54 AM 39.0 °F 32.3 °F 30.9 °F 73% 30.33 in 10.0 mi South 10.4 mph - N/A   Mostly Cloudy
10:54 AM 42.1 °F 36.1 °F 30.0 °F 62% 30.32 in 10.0 mi South 10.4 mph - N/A   Mostly Cloudy
11:54 AM 44.1 °F 37.4 °F 30.9 °F 60% 30.25 in 10.0 mi South 13.8 mph - N/A   Mostly Cloudy
12:54 PM 46.0 °F 40.6 °F 30.0 °F 54% 30.18 in 10.0 mi South 11.5 mph - N/A   Overcast
1:54 PM 48.9 °F - 32.0 °F 52% 30.14 in 10.0 mi SSW 8.1 mph - N/A   Mostly Cloudy
2:54 PM 52.0 °F - 34.0 °F 50% 30.08 in 10.0 mi South 15.0 mph - N/A   Scattered Clouds
3:54 PM 54.0 °F - 35.1 °F 49% 30.04 in 10.0 mi SSW 15.0 mph 25.3 mph N/A   Partly Cloudy
4:54 PM 54.0 °F - 36.0 °F 51% 30.01 in 10.0 mi SSW 11.5 mph - N/A   Partly Cloudy
5:54 PM 51.1 °F - 37.0 °F 59% 30.00 in 10.0 mi SSW 5.8 mph - N/A   Scattered Clouds
6:54 PM 48.2 °F - 37.4 °F 66% 29.97 in 10.0 mi Calm Calm - N/A   Scattered Clouds
7:54 PM 43.0 °F - 37.0 °F 80% 29.99 in 10.0 mi Calm Calm - N/A   Scattered Clouds
8:54 PM 45.0 °F 42.6 °F 37.9 °F 76% 29.99 in 10.0 mi South 4.6 mph - N/A   Mostly Cloudy
9:54 PM 41.0 °F - 37.9 °F 89% 29.98 in 10.0 mi Calm Calm - N/A   Scattered Clouds
10:54 PM 44.1 °F 38.6 °F 39.0 °F 82% 29.97 in 10.0 mi South 10.4 mph - N/A   Partly Cloudy
11:54 PM 46.0 °F 41.0 °F 42.1 °F 86% 29.94 in 10.0 mi SSW 10.4 mph - N/A   Partly Cloudy